Regional Weather Roundup
Issued by NWS

Home | Current Version | Previous Version | Graphics & Text | Print | Product List | Glossary On
Versions: 1 2 3 4 5 6 7 8 9 10 11 12 13 14 15 16 17 18 19 20 21 22 23 24 25 26 27 28 29 30 31 32 33 34 35 36 37 38 39 40 41 42 43 44 45 46 47 48 49 50
000
ASUS43 KOAX 031610
RWRNE

WEATHER ROUNDUP FOR NEBRASKA
NATIONAL WEATHER SERVICE OMAHA NE
1000 AM CST SAT DEC 03 2016

NOTES: SATELLITE DATA IS BEING USED TO AUGMENT CLOUD COVER ABOVE
       12000 FEET.
       "FAIR" INDICATES FEW OR NO CLOUDS BELOW 12,000 FEET WITH NO
       SIGNIFICANT WEATHER AND/OR OBSTRUCTIONS TO VISIBILITY.

  * THESE STATIONS DO NOT REPORT WEATHER SUCH AS RAIN...SNOW OR FOG.

NEZ001>004-019>022-054>056-031700-
NEBRASKA PANHANDLE

CITY           SKY/WX    TMP DP  RH WIND       PRES   REMARKS
SCOTTSBLUFF    SUNNY     28  15  58 SE3       30.00S
ALLIANCE       SUNNY     32  17  54 SW16      29.98F WCI  21
CHADRON        SUNNY     33  15  47 SW10      29.95F WCI  25
KIMBALL        SUNNY     29  21  74 W8        29.99F WCI  21
SIDNEY         SUNNY     29  22  75 SW13      30.02F WCI  19
$$

NEZ057>060-069>072-079>082-031700-
SOUTHWEST NEBRASKA

CITY           SKY/WX    TMP DP  RH WIND       PRES   REMARKS
NORTH PLATTE   CLOUDY    34  23  64 S9        30.11F WCI  27
IMPERIAL       SUNNY     32  20  61 SW13      30.10F WCI  22
LEXINGTON      CLOUDY    32  27  79 S13       30.16F WCI  23
MCCOOK         CLOUDY    32  25  75 CALM      30.15S
OGALLALA       SUNNY     33  26  76 SW7       30.08S WCI  26
$$

NEZ005>010-023>029-035>040-094-031700-
NORTH CENTRAL NEBRASKA

CITY           SKY/WX    TMP DP  RH WIND       PRES   REMARKS
VALENTINE      MOSUNNY   38  25  59 S16       30.02F WCI  29
AINSWORTH      CLOUDY    35  28  76 S12       30.06F WCI  27
BROKEN BOW     CLOUDY    34  27  75 SW13      30.13S WCI  25
O`NEILL        CLOUDY    33  31  90 S5        30.14S WCI  29
ORD            CLOUDY    35  26  69 S10       30.16S WCI  27
THEDFORD       CLOUDY    36  27  71 S14       30.07F WCI  27
$$

NEZ041-046>049-061>064-073>077-083>087-031700-
SOUTH CENTRAL NEBRASKA

CITY           SKY/WX    TMP DP  RH WIND       PRES   REMARKS
GRAND ISLAND   LGT SNOW  32  29  88 S13       30.22S FOG     WCI  22
AURORA         LGT SNOW  32  30  93 S6        30.24R WCI  26
HASTINGS       LGT SNOW  32  30  92 S7        30.23S FOG     WCI  26
HEBRON         MIX PCPN  32  31  97 CALM      30.27S
HOLDREGE       CLOUDY    32  29  87 S6        30.19S WCI  26
KEARNEY *      CLOUDY    32  27  80 S7        30.20R WCI  26
YORK           CLOUDY    32  30  93 S5        30.25R WCI  27
$$

NEZ011>018-030>034-042>045-031700-
NORTHEAST NEBRASKA

CITY           SKY/WX    TMP DP  RH WIND       PRES   REMARKS
NORFOLK        CLOUDY    31  28  89 S8        30.22R WCI  23
ALBION         CLOUDY    32  28  86 S6        30.21R WCI  26
BLAIR          CLOUDY    32  30  91 S7        30.26R WCI  26
FREMONT        CLOUDY    32  31  96 S8        30.28R WCI  24
TEKAMAH        CLOUDY    30  28  92 S7        30.27S WCI  23
WAYNE          CLOUDY    31  29  92 S7        30.23R WCI  25
$$

NEZ050>053-065>068-078-088>093-031700-
SOUTHEAST NEBRASKA

CITY           SKY/WX    TMP DP  RH WIND       PRES   REMARKS
LINCOLN        CLOUDY    29  26  89 CALM      30.30R
OMAHA EPPLEY   CLOUDY    31  27  85 S8        30.29R WCI  23
BEATRICE       LGT SNOW  33  31  92 S3        30.30R
FALLS CITY       N/A    N/A N/A N/A MISG      30.29R
NEBRASKA CITY  CLOUDY    32  29  90 SE6       30.30R WCI  26
PLATTSMOUTH    CLOUDY    32  28  83 SE6       30.30R WCI  27
$$

NEZ044-045-051>053-067-031700-
OMAHA AREA

CITY           SKY/WX    TMP DP  RH WIND       PRES   REMARKS
OMAHA EPPLEY   CLOUDY    31  27  85 S8        30.29R WCI  23
BLAIR          CLOUDY    32  30  91 S7        30.26R WCI  26
FREMONT        CLOUDY    32  31  96 S8        30.28R WCI  24
MILLARD        CLOUDY    32  29  89 SE7       30.30R WCI  26
OFFUTT AFB     PTSUNNY   29  29 100 SE6       30.30R WCI  23
PLATTSMOUTH    CLOUDY    32  28  83 SE6       30.30R WCI  27
WAHOO          CLOUDY    30  28  93 S5        30.28R WCI  25
$$



USA.gov is the U.S. government's official web portal to all federal, state and local government web resources and services.